Volver al catálogo

KUIPER-00138

ActivoComunicacionesLEO
NORAD 65964·PAYLOAD·🇺🇸 United States

Lanzado Oct 14, 2025 desde Cape Canaveral Space Force Station

Loading…

Próximos Pases (próximas 24 horas)

TLE

ActualizadoSource: CelesTrak SupGP

Época: Sep 14, 2026, 22:01 UTC

1 65964C 25228T   26257.91775463 -.00015677  00000+0 -20523-2 0  2571
2 65964  51.8972 226.2964 0000816  62.4028  37.3700 14.79944523    11

Sigue KUIPER-00138 en tiempo real con AllMySat

Download on the App Store